Regional Weather Roundup
Issued by NWS Goodland, KS

Home | Current Version | Previous Version | Graphics & Text | Print | Product List | Glossary On
Versions: 1 2 3 4 5 6 7 8 9 10 11 12 13 14 15 16 17 18 19 20 21 22 23 24 25 26 27 28 29 30 31 32 33 34 35 36 37 38 39 40 41 42 43 44 45 46 47 48 49 50
833
ASUS43 KGLD 251659
RWRGLD

GOODLAND FORECAST AREA HOURLY WEATHER ROUNDUP
NATIONAL WEATHER SERVICE GOODLAND KS
1000 AM MST SAT FEB 25 2017

...OFFICIAL OBSERVATIONS...

CITY           SKY/WX    TMP DP  RH WIND       PRES   REMARKS
GOODLAND KS    SUNNY     34  20  56 W16       30.00F
HILL CITY KS   SUNNY     36  19  50 W16       30.09F
IMPERIAL NEB   SUNNY     29  15  56 W15       29.98F WCI  18
MCCOOK NEB     SUNNY     33  25  72 SW18      30.01F
AKRON CO       SUNNY     26  19  74 W10       29.94F WCI  16
BURLINGTON CO  SUNNY     34  17  50 W14       29.98F
LIMON CO       SUNNY     30   4  33 NW9       29.93F
$$

...UNOFFICIAL OBSERVATIONS...

CITY           SKY/WX    TMP DP  RH WIND       PRES   REMARKS
LENORA KS        N/A     33  32  96 SW10        N/A
SHARON SPRINGS   N/A     32  20  62 SW17G25     N/A
TRENTON NEB      N/A     32  32 100 CALM        N/A
KIT CARSON CO    N/A     28  17  64 MISG        N/A
YUMA CO        FAIR      27  14  59 NW12      29.96F WCI  16
$$




USA.gov is the U.S. government's official web portal to all federal, state and local government web resources and services.